THOR ABLESTAR DEB, 177

Orbit data source: Space-Track

THOR ABLESTAR DEB, 177 is space debris in LEO originally from a launch on Thu, 29 Jun 1961 UTC launched from the Air Force Eastern Test Range (AFETR). Debris objects in space refer to the collection of defunct objects orbiting the Earth. Examples of debris include non-operational satellites, rocket bodies, and fragments generated from explosions, collisions, or faulty payload assembly.

Loading next visibility...
THOR ABLESTAR DEB details
Identifier
177, 1961-015BB
Orbit
LEO
Last TLE update17 hours ago
Origin
Flag of USUSAF SSD (US)
ManufacturerUnknown
MissionSpacecraft
Bus & MotorUnknown
MassUnknown
Launch date (UTC)
1961-06-29 (64 years ago)
Launch vehicleUnknown
Launch site
Air Force Eastern Test Range (AFETR)
Object type
Payload
Rocket body
Debris
Shape & HBRUnknown
Radar Cross SectionMedium (>0.1 m² and <1 m²)

Expand to show TLE details & history

TLE from 17 hours ago
0 THOR ABLESTAR DEB
1 00177U 61015BB  25013.64829628  .00000235  00000-0  15778-3 0  9995
2 00177  66.6577  90.9325 0099802  92.7108 268.5410 14.14503882267677
Epoch: 2025-01-13T15:33Z
Definitive object data (Epoch: 2025-01-13T15:33:32.798Z)
Latitude-0.00004°
Longitude104.17949°
Altitude848.643 km
Speed7.427 km/s
True Right ascension06h 03m 43s
True Declination0° 00' 00"
Sunlit
Object was in full shadow at TLE epoch
Visualization TLE readout
Latitude66.60846°
Longitude-160.56668°
Altitude782.578 km
Speed7.506 km/s
Apparent Right ascension19h 15m 03s
Apparent Declination35° 59' 57"
Sunlit
Object is in full shadow
Visualization observer readout
Local Sidereal Time09:33:27
Azimuth27.616° NE
Elevation-7.678°
Doppler factor1
Orbital elements
Apogee altitude914.454 km
Perigee altitude770.33 km
Semi-major axis7,220.529 km
Eccentricity0.0099802
Inclination66.6577°
RAAN90.9325°
Arg. of periapsis92.7108°
True anomaly267.39816°
Mean anomaly268.541°
Eccentric anomaly267.96954°
Mean motion3.53744 °/min
BSTAR0.00015778
Orbital period101.77 mins
Loading maneuver chart data...

THOR ABLESTAR DEB Visibility forecast

Observer location: undefined°, undefined

Span
Click to sort rows by Start time (UTC) header in descending order
Start Az.
Max El. time (UTC)
Max El. Az.
Max El.
End time (UTC)
End Az.
6 mins2025-01-14 14:08:36.372Z6.859° NNE2025-01-14 14:11:36.372Z42.821° NE15.798°2025-01-14 14:14:36.372Z78.867° E
8 mins2025-01-14 15:53:36.372Z327.848° NNW2025-01-14 15:56:36.372Z293.635° NW44.389°2025-01-14 16:01:36.372Z155.946° SSE
4 mins2025-01-15 05:02:36.372Z124.324° SE2025-01-15 05:04:36.372Z99.104° ESE14.96°2025-01-15 05:06:36.372Z75.64° E
8 mins2025-01-15 06:44:36.372Z222.229° SW2025-01-15 06:48:36.372Z331.383° NNW41.988°2025-01-15 06:52:36.372Z22.508° NE
|